CZ-6A DEB

Satellite information

Favourite Embed

Satellite Type and Status

DEBRISIN ORBIT

Key statistics

Satellite CZ-6A DEB at a glance.

Uptime

1072

Days in orbit

Revolutions

≈ 14.2

Per day

Orbit

SSO

Sun Synchronous Orbit

Inclination

98.8

Latest

Satellite identification and parameters

Extended collection of information and parameters for CZ-6A DEB.

Object identification

Identified? True

Debris? True

Object name: CZ-6A DEB

International designator: 2022-151XV

Object number (NORAD): 55523

Object ID (CCSDS): 55523

Country: PEOPLES REPUBLIC OF CHINA (PRC)

Current information (Y/N): Y

RCS size: SMALL

Orbital parameters

Period: 101.334 minutes

Inclination: 98.8317 deg

SMA: 7199.947 km

Apoapsis: 858.201 km

Periapsis: 785.424 km

RAAN: 296.2012 deg

Eccentricy: 0.00505403

Argument of periapsis: 262.1092 deg

Mean anomaly: 97.4346 deg

Mean motion: 14.21048094 rev/day

Mean motion (dot): 0.00008596 rev/day2

B* drag term: 0.0039275059 1/REarth

Two-line elements (TLE)

Creation date: Oct. 18, 2025, 2:17 a.m.

Reference frame: TEME

Reference center: EARTH

Epoch: Oct. 17, 2025, 11:24 p.m. UTC

TLE line 0: 0 CZ-6A DEB

TLE line 1: 1 55523U 22151XV 25290.97524587 .00008596 00000-0 39275-2 0 9992

TLE line 2: 2 55523 98.8317 296.2012 0050540 262.1092 97.4346 14.21048094145844

Live tracking on map

Real-time ground track for satellite CZ-6A DEB.

In-orbit conjunctions

A list of the most updated potential collisions computed for object CZ-6A DEB.

Target Orbit TCA Probability of collision Miss distance Type
FENGYUN 1C DEB SSO 2025-09-26 17:26:12 0.0002038562 412.0 (m) DEBRIS
EXPLORER 30 LEO 2025-04-10 01:55:14 0.0002252093 657.0 (m) PAYLOAD
CZ-6A DEB LEO 2024-10-07 19:34:34 0.0002191441 149.0 (m) DEBRIS

Associated space launch

Chinese satellite reported for atmospheric/ocean/environmental/spatial parameter research purposes, details TBD.

CZ-6A DEB was lifted into orbit during the mission ‘Long March 6A | Yunhai 3’, on board a Long March 6A space rocket.

The launch took place on Nov. 11, 2022, 10:52 p.m. from Launch Complex 9A.

For more information about the launch, click the button.

Launch to space Long March 6A | Yunhai 3
Long March 6A | Yunhai 3

Agency: N/A

Status: Launch Successful

Launch date: Nov. 11, 2022, 10:52 p.m. UTC

Rocket: Long March 6A

Launch pad: Launch Complex 9A

Location: Taiyuan Satellite Launch Center, People's Republic of China

...

Latest news about this satellite

There are no fresh news available about this satellite. Check back as we update our databases every day.


Newsletter sign-up

Weekly statistics, charts and insights to help you stay on top of the space industry.